N4BEW Weather Reports


time (UTC)temp
C
wind
direction
speed
KPH
gust
KPH
rain 1hr
cm
rain 24hr
cm
rain mn
cm
humidity
%
barometer
mb
20260905232009 30 197 3.2 12.9 0.00 0.00 0.00 72 1013.2
20260905230457 31 241 3.2 11.3 0.00 0.00 0.00 71 1013.2
20260905224938 31 217 4.8 9.7 0.00 0.00 0.00 70 1013.5
20260905223418 31 84 6.4 11.3 0.00 0.00 0.00 68 1013.5
20260905221913 32 254 9.7 20.9 0.00 0.00 0.00 66 1013.2
20260905220408 33 216 9.7 17.7 0.00 0.00 0.00 62 1013.2
20260905214904 33 249 4.8 9.7 0.00 0.00 0.00 62 1013.2
20260905213400 34 203 8.0 14.5 0.00 0.00 0.00 61 1013.2
20260905211855 34 258 12.9 12.9 0.00 0.00 0.00 61 1013.2
20260905210351 36 224 3.2 4.8 0.00 0.00 0.00 47 1013.2
20260905204832 36 247 3.2 4.8 0.00 0.00 0.00 48 1013.2
20260905203328 36 196 3.2 8.0 0.00 0.00 0.00 46 1013.2
20260905201823 36 316 4.8 4.8 0.00 0.00 0.00 46 1013.5
20260905200304 36 199 1.6 3.2 0.00 0.00 0.00 46 1013.9
20260905194745 35 166 3.2 6.4 0.00 0.00 0.00 48 1014.2
20260905193241 36 139 9.7 11.3 0.00 0.00 0.00 47 1014.2
20260905191720 35 204 1.6 6.4 0.00 0.00 0.00 47 1014.6
20260905190214 37 161 6.4 6.4 0.00 0.00 0.00 45 1014.6
20260905184710 36 298 3.2 6.4 0.00 0.00 0.00 46 1014.6
20260905183150 35 136 8.0 11.3 0.00 0.00 0.00 48 1014.9
20260905181631 35 239 1.6 4.8 0.00 0.00 0.00 50 1015.2
20260905180127 35 306 8.0 11.3 0.00 0.00 0.00 48 1015.2
20260905174623 36 237 3.2 11.3 0.00 0.00 0.00 49 1015.2
20260905173115 35 166 11.3 11.3 0.00 0.00 0.00 51 1015.6
20260905171611 35 49 3.2 6.4 0.00 0.00 0.00 54 1015.9
20260905170106 35 231 4.8 6.4 0.00 0.00 0.00 54 1015.9
20260905164602 34 175 3.2 4.8 0.00 0.00 0.00 56 1016.3
20260905163059 34 240 3.2 4.8 0.00 0.00 0.00 55 1016.3